Hourly Data Report for September 02, 2017

All times are specified in Local Standard Time (LST). Add 1 hour to adjust for Daylight Saving Time where and when it is observed.

GRISE FIORD CLIMATE
NUNAVUT

76°25'22.040" N
82°54'08.020" W
44.50 m
2402351
71971
NGC

Download Data

Hourly Data (September 2017)
Hourly Data Report for September 2, 2017
Temp Definition
°C
Dew Point Temp Definition
°C
Rel Hum Definition
%
Wind Dir Definition
10's deg

Wind Spd Definition
km/h
Visibility Definition
km
Stn Press Definition
kPa
Hmdx Definition


Wind Chill Definition


Weather Definition


TIME
00:00 0.0 -1.5 90 10 2   100.25   -1 LegendNANA
01:00 0.5 -3.6 74 22 4   100.27     LegendNANA
02:00 -0.5 -1.9 90 13 6   100.30   -3 LegendNANA
03:00 -0.8 -2.9 85 3 4   100.35   -2 LegendNANA
04:00 -0.9 -4.0 79 0 1   100.38   -1 LegendNANA
05:00 -0.5 -4.7 73 5 6   100.41   -3 LegendNANA
06:00 -0.3 -4.6 73 27 6   100.44   -2 LegendNANA
07:00 -0.4 -3.7 79 16 7   100.45   -3 LegendNANA
08:00 -0.2 -4.2 75 14 2   100.45   -1 LegendNANA
09:00 0.3 -4.8 68 18 3   100.43     LegendNANA
10:00 0.0 -4.8 70 14 4   100.43   -1 LegendNANA
11:00 0.6 -6.1 61 18 4   100.41     LegendNANA
12:00 1.3 -6.5 56 19 2   100.41     LegendNANA
13:00 0.7 -3.7 72 23 8   100.41     LegendNANA
14:00 0.7 -4.7 67 23 5   100.42     LegendNANA
15:00 0.3 -2.9 79 23 3   100.44     LegendNANA
16:00 0.7 -4.9 66 26 1   100.44     LegendNANA
17:00 0.3 -4.4 71 30 2   100.42     LegendNANA
18:00 0.3 -4.5 70 0 1   100.41     LegendNANA
19:00 0.1 -4.1 74 17 5   100.40     LegendNANA
20:00 0.2 -3.5 76 6 3   100.39     LegendNANA
21:00 0.2 -2.0 85 27 1   100.36     LegendNANA
22:00 0.1 -1.0 92 15 10   100.36     LegendNANA
23:00 0.2 -0.9 92 16 4   100.31     LegendNANA

Notes on Data Quality.

Legend

  • E = Estimated
  • M = Missing
  • NA = Not Available
  • ‡ = Partner data that is not subject to review by the National Climate Archives
Date modified: